Terug naar catalogus

INTELSAT 33E DEB

ActiefMEO
NORAD 62004·DEBRIS· XX

Gelanceerd Aug 24, 2016 vanaf Guiana Space Centre

Loading…

Volgende Passages (komende 24 uur)

TLE

VersSource: Space-Track

Epoch: Sep 13, 2026, 18:20 UTC

1 62004U 16053W   26256.76390761 -.00000058  00000-0  00000-0 0  9991
2 62004   2.7139 110.8078 0207761 283.4981  74.6690  1.02632655  7121

Volg INTELSAT 33E DEB in realtime met AllMySat

Download on the App Store